Total_Precipitation_Accumulation
0.39 0.31 0.47 0.49 0.46 0.56 0.82 0.77 0.68 0.32 0.16 0.11 0.10 0.14 0.14 0.11 0.08 0.07 0.06 0.05 0.05 0.04 0.04 0.04 0.03 0.03 0.02 0.02 0.03 0.03 0.05 0.06 0.06 0.07 0.07 0.07 0.07 0.06 0.07 0.07 0.06 0.07 0.08 0.09
0.45 0.28 0.38 0.44 0.41 0.43 0.47 0.49 0.47 0.33 0.25 0.13 0.12 0.15 0.14 0.11 0.09 0.08 0.07 0.06 0.05 0.05 0.04 0.04 0.04 0.05 0.05 0.04 0.04 0.04 0.06 0.07 0.07 0.07 0.07 0.07 0.07 0.08 0.09 0.10 0.10 0.12 0.15 0.19
0.51 0.31 0.40 0.44 0.38 0.39 0.38 0.34 0.36 0.37 0.28 0.18 0.18 0.18 0.15 0.12 0.09 0.08 0.05 0.04 0.03 0.03 0.04 0.03 0.03 0.03 0.03 0.04 0.05 0.05 0.06 0.08 0.08 0.08 0.08 0.08 0.10 0.15 0.19 0.21 0.22 0.26 0.30 0.35
0.50 0.36 0.48 0.35 0.27 0.29 0.31 0.28 0.30 0.28 0.21 0.16 0.16 0.18 0.17 0.12 0.09 0.06 0.04 0.03 0.02 0.02 0.02 0.02 0.02 0.02 0.02 0.03 0.04 0.06 0.07 0.10 0.12 0.14 0.17 0.20 0.20 0.25 0.31 0.35 0.37 0.40 0.41 0.43
0.48 0.36 0.26 0.18 0.18 0.21 0.28 0.29 0.25 0.18 0.13 0.11 0.12 0.17 0.17 0.14 0.09 0.06 0.05 0.04 0.04 0.03 0.03 0.02 0.03 0.03 0.04 0.05 0.06 0.06 0.08 0.11 0.14 0.17 0.24 0.30 0.31 0.34 0.38 0.43 0.46 0.45 0.42 0.38
0.43 0.37 0.18 0.11 0.07 0.09 0.18 0.27 0.17 0.15 0.14 0.14 0.15 0.18 0.16 0.13 0.11 0.10 0.09 0.07 0.06 0.07 0.08 0.09 0.09 0.10 0.11 0.11 0.15 0.18 0.19 0.22 0.26 0.31 0.37 0.40 0.40 0.39 0.38 0.36 0.35 0.31 0.26 0.22
0.34 0.31 0.08 0.04 0.04 0.06 0.19 0.23 0.10 0.09 0.11 0.14 0.13 0.12 0.12 0.10 0.09 0.11 0.12 0.12 0.11 0.11 0.13 0.15 0.15 0.16 0.17 0.18 0.25 0.30 0.33 0.35 0.36 0.38 0.39 0.39 0.36 0.33 0.29 0.24 0.19 0.15 0.12 0.09
0.16 0.22 0.11 0.05 0.06 0.10 0.13 0.10 0.09 0.10 0.11 0.12 0.12 0.10 0.09 0.11 0.10 0.09 0.08 0.10 0.12 0.13 0.15 0.18 0.21 0.25 0.26 0.28 0.32 0.32 0.33 0.33 0.32 0.30 0.28 0.28 0.25 0.21 0.16 0.12 0.08 0.06 0.04 0.02
0.09 0.10 0.08 0.07 0.07 0.07 0.06 0.07 0.07 0.09 0.10 0.09 0.09 0.10 0.09 0.08 0.08 0.08 0.08 0.09 0.11 0.15 0.17 0.19 0.21 0.25 0.27 0.27 0.26 0.25 0.25 0.23 0.20 0.17 0.15 0.13 0.11 0.09 0.07 0.05 0.03 0.02 0.01 0.01
0.07 0.04 0.04 0.05 0.05 0.05 0.04 0.03 0.03 0.04 0.05 0.08 0.10 0.10 0.09 0.06 0.06 0.06 0.06 0.07 0.08 0.10 0.11 0.11 0.12 0.15 0.17 0.15 0.14 0.13 0.13 0.12 0.10 0.07 0.05 0.04 0.03 0.02 0.02 0.01 0.01 0.01 0.01 0.01
0.07 0.04 0.04 0.04 0.04 0.04 0.03 0.02 0.02 0.01 0.02 0.04 0.05 0.06 0.07 0.06 0.06 0.06 0.06 0.06 0.06 0.06 0.06 0.06 0.06 0.07 0.07 0.06 0.06 0.05 0.05 0.04 0.03 0.03 0.02 0.02 0.01 0.01 0.01 0.01 0.01 0.01 0.01 0.02
0.09 0.05 0.05 0.05 0.03 0.04 0.03 0.02 0.02 0.02 0.03 0.03 0.03 0.04 0.03 0.03 0.03 0.04 0.05 0.05 0.06 0.06 0.06 0.06 0.05 0.04 0.04 0.03 0.03 0.03 0.03 0.02 0.02 0.02 0.02 0.01 0.01 0.01 0.02 0.02 0.02 0.02 0.01 0.02
0.05 0.04 0.04 0.03 0.02 0.02 0.03 0.03 0.02 0.02 0.03 0.03 0.04 0.04 0.03 0.04 0.05 0.05 0.05 0.06 0.06 0.06 0.05 0.05 0.05 0.05 0.04 0.04 0.04 0.03 0.03 0.03 0.02 0.02 0.02 0.02 0.02 0.02 0.02 0.02 0.03 0.02 0.02 0.02
0.03 0.04 0.04 0.03 0.02 0.02 0.02 0.02 0.03 0.03 0.03 0.03 0.04 0.03 0.03 0.04 0.05 0.06 0.06 0.06 0.06 0.06 0.05 0.04 0.04 0.05 0.05 0.04 0.04 0.04 0.04 0.04 0.04 0.03 0.03 0.03 0.03 0.03 0.03 0.03 0.02 0.02 0.02 0.02
0.02 0.04 0.05 0.04 0.03 0.03 0.03 0.03 0.03 0.03 0.03 0.03 0.03 0.03 0.03 0.04 0.06 0.06 0.06 0.06 0.06 0.05 0.05 0.05 0.04 0.04 0.04 0.04 0.04 0.04 0.04 0.04 0.05 0.05 0.05 0.04 0.04 0.04 0.04 0.03 0.03 0.03 0.02 0.03
0.03 0.03 0.03 0.02 0.02 0.03 0.03 0.04 0.04 0.04 0.05 0.04 0.05 0.06 0.06 0.07 0.06 0.06 0.06 0.06 0.06 0.05 0.05 0.05 0.04 0.05 0.04 0.04 0.05 0.05 0.04 0.06 0.06 0.04 0.04 0.05 0.05 0.05 0.04 0.04 0.04 0.04 0.04 0.03
0.04 0.04 0.05 0.05 0.04 0.04 0.04 0.04 0.04 0.05 0.05 0.05 0.06 0.06 0.06 0.06 0.06 0.05 0.05 0.05 0.05 0.05 0.06 0.06 0.06 0.06 0.05 0.05 0.05 0.05 0.05 0.06 0.08 0.06 0.05 0.05 0.06 0.06 0.06 0.06 0.06 0.05 0.03 0.05
0.05 0.05 0.05 0.06 0.05 0.05 0.05 0.05 0.05 0.04 0.05 0.05 0.04 0.04 0.05 0.05 0.05 0.06 0.06 0.05 0.05 0.05 0.05 0.05 0.05 0.06 0.06 0.06 0.07 0.07 0.07 0.07 0.07 0.06 0.07 0.07 0.08 0.07 0.07 0.07 0.06 0.05 0.04 0.06
0.04 0.04 0.04 0.04 0.05 0.06 0.06 0.06 0.06 0.05 0.05 0.05 0.05 0.06 0.06 0.05 0.05 0.05 0.05 0.05 0.06 0.06 0.06 0.06 0.07 0.06 0.06 0.06 0.08 0.07 0.07 0.08 0.09 0.09 0.10 0.12 0.12 0.09 0.08 0.07 0.07 0.06 0.07 0.06
0.04 0.05 0.07 0.08 0.09 0.09 0.09 0.09 0.08 0.08 0.07 0.06 0.06 0.06 0.05 0.05 0.05 0.04 0.04 0.04 0.05 0.05 0.06 0.08 0.08 0.07 0.06 0.07 0.09 0.08 0.07 0.09 0.11 0.12 0.13 0.13 0.12 0.11 0.10 0.09 0.09 0.08 0.07 0.07
0.07 0.07 0.09 0.10 0.11 0.11 0.11 0.10 0.09 0.09 0.08 0.07 0.06 0.06 0.07 0.07 0.06 0.06 0.06 0.06 0.06 0.06 0.05 0.07 0.07 0.06 0.07 0.08 0.11 0.09 0.09 0.10 0.11 0.12 0.13 0.13 0.13 0.12 0.11 0.10 0.10 0.09 0.09 0.08
0.10 0.10 0.11 0.12 0.14 0.14 0.13 0.10 0.09 0.08 0.07 0.07 0.07 0.06 0.06 0.06 0.07 0.07 0.07 0.07 0.07 0.07 0.06 0.05 0.05 0.07 0.08 0.10 0.09 0.08 0.09 0.11 0.11 0.12 0.12 0.12 0.13 0.12 0.12 0.12 0.12 0.11 0.11 0.10
0.11 0.11 0.11 0.11 0.12 0.14 0.13 0.12 0.10 0.09 0.09 0.08 0.08 0.08 0.08 0.07 0.07 0.07 0.07 0.07 0.06 0.07 0.06 0.05 0.06 0.09 0.10 0.08 0.07 0.08 0.09 0.10 0.10 0.10 0.11 0.11 0.11 0.12 0.13 0.12 0.12 0.11 0.11 0.10
0.12 0.12 0.11 0.11 0.10 0.10 0.10 0.10 0.10 0.10 0.09 0.09 0.09 0.09 0.09 0.09 0.08 0.07 0.06 0.07 0.08 0.08 0.07 0.06 0.08 0.09 0.09 0.08 0.07 0.09 0.09 0.10 0.10 0.11 0.11 0.11 0.12 0.12 0.12 0.12 0.11 0.10 0.09 0.09
0.12 0.11 0.10 0.10 0.09 0.10 0.09 0.09 0.08 0.08 0.08 0.08 0.07 0.06 0.06 0.07 0.07 0.07 0.07 0.06 0.08 0.08 0.07 0.08 0.09 0.09 0.09 0.09 0.09 0.10 0.11 0.11 0.12 0.12 0.12 0.12 0.11 0.11 0.11 0.11 0.11 0.11 0.11 0.10
0.09 0.08 0.08 0.07 0.07 0.07 0.07 0.07 0.07 0.07 0.07 0.07 0.06 0.05 0.05 0.05 0.05 0.05 0.05 0.05 0.06 0.07 0.07 0.08 0.09 0.10 0.10 0.10 0.11 0.11 0.12 0.12 0.13 0.11 0.10 0.10 0.10 0.11 0.11 0.10 0.11 0.11 0.10 0.09
0.07 0.06 0.06 0.06 0.05 0.05 0.05 0.05 0.06 0.06 0.07 0.07 0.07 0.06 0.06 0.05 0.05 0.05 0.04 0.04 0.04 0.04 0.05 0.06 0.06 0.07 0.08 0.09 0.10 0.10 0.11 0.11 0.11 0.11 0.11 0.11 0.11 0.11 0.10 0.10 0.10 0.10 0.10 0.09